Regional Weather Roundup
Issued by NWS Upton, NY

Current Version | Previous Version | Graphics & Text | Print | Product List | Glossary Off
Versions: 1 2 3 4 5 6 7 8 9 10 11 12 13 14 15 16 17 18 19 20 21 22 23 24 25 26 27 28 29 30 31 32 33 34 35 36 37 38 39 40 41 42 43 44 45 46 47 48 49 50

000
ASUS41 KOKX 032204
RWROKX

REGIONAL WEATHER ROUNDUP
NATIONAL WEATHER SERVICE NEW YORK NY
600 PM EDT THU SEP 03 2015

NOTE: "FAIR" INDICATES FEW OR NO CLOUDS BELOW 12,000 FEET WITH NO
SIGNIFICANT WEATHER AND/OR OBSTRUCTIONS TO VISIBILITY.

NYZ071-072-176-178-NJZ106-104-032300-
NEW YORK CITY METRO AREA


CITY           SKY/WX    TMP DP  RH WIND       PRES   REMARKS
CENTRAL PARK   SUNNY     91  59  33 VRB6      29.85S HX  90
LAGUARDIA APRT PTSUNNY   91  57  31 VRB6      29.81S
KENNEDY INTL   PTSUNNY   86  67  52 SE8       29.84R
NEWARK/LIBERTY PTSUNNY   92  61  35 NE9       29.81F HX  92
BRNX BOT. GARD   N/A     90  59  35 NW6       29.83S
TETERBORO      SUNNY     91  60  35 N6        29.80S HX  90
$$

NYZ177-179-078>081-032300-
LONG ISLAND NEW YORK

CITY           SKY/WX    TMP DP  RH WIND       PRES   REMARKS
FARMINGDALE    SUNNY     85  67  54 SW8       29.84S
ISLIP          PTSUNNY   83  69  62 S7        29.83R
SHIRLEY        SUNNY     82  69  64 SW6       29.85R
WESTHAMPTON    SUNNY     81  71  71 VRB5      29.86R
MONTAUK POINT    N/A     80  72  76 CALM      29.86R
$$

NYZ052-065-067-032300-
HUDSON VALLEY

CITY           SKY/WX    TMP DP  RH WIND       PRES   REMARKS
WHITE PLAINS   SUNNY     88  62  41 CALM      29.84S
NEWBURGH       MOSUNNY   88  70  55 VRB5      29.86S HX  92
MONTGOMERY     MOSUNNY   88  69  53 NE8       29.85R HX  92
POUGHKEEPSIE   MOSUNNY   90  63  40 NE7       29.83S HX  91
ALBANY         CLOUDY    77  70  79 CALM      29.87S
$$

NJZ001-105-106-008-010-013-015-019>022-104-032300-
NEW JERSEY

CITY           SKY/WX    TMP DP  RH WIND       PRES   REMARKS
NEWARK/LIBERTY PTSUNNY   92  61  35 NE9       29.81F HX  92
TETERBORO      SUNNY     91  60  35 N6        29.80S HX  90
CALDWELL       SUNNY     91  64  40 N7        29.82F HX  92
MORRISTOWN     MOSUNNY   90  66  45 E7        29.83S HX  92
SOMERVILLE     SUNNY     92  63  38 NW6       29.81S HX  93
SUSSEX         NOT AVBL
ANDOVER          N/A     83  72  69 CALM      29.86S
TRENTON        SUNNY     92  61  35 N7        29.82S HX  92
MILLVILLE      MOSUNNY   92  62  36 VRB7      29.82S HX  92
ATLANTIC CITY  SUNNY     82  68  62 E8        29.84S
WRIGHTSTOWN    SUNNY     88  67  48 SE2       29.80S HX  91
TOMS RIVER     SUNNY     84  66  54 SE7       29.84S
BELMAR         SUNNY     84  64  51 SE6       29.84S
$$

PAZ047>061-062-071-032300-
EASTERN PENNSYLVANIA

CITY           SKY/WX    TMP DP  RH WIND       PRES   REMARKS
PHILADELPHIA   MOSUNNY   94  61  33 N12       29.82F HX  94
ALLENTOWN      MOSUNNY   88  67  49 NE5       29.84S HX  91
SCRANTON       CLOUDY    84  69  60 N6        29.89S
$$

CTZ002-004>006-009-010-012-RIZ004-006-007-MAZ004-011-015-032300-
SOUTHERN NEW ENGLAND
 IN CT

CITY           SKY/WX    TMP DP  RH WIND       PRES   REMARKS
BRADLEY INTL   PTSUNNY   86  65  49 N5        29.83R
HARTFORD       MOSUNNY   89  64  43 NW7       29.83R HX  90
DANBURY        SUNNY     88  58  36 VRB6      29.86S
WTRBRY/OXFORD  MOSUNNY   86  63  45 NE6       29.89R
BRIDGEPORT     PTSUNNY   86  66  51 CALM      29.83R
MERIDEN        MOSUNNY   90  59  35 N5        29.83R
NEW HAVEN      MOSUNNY   83  69  62 CALM      29.84R
CHESTER        NOT AVBL
GROTON         SUNNY     79  74  84 SE5       29.84R
WILLIMANTIC    PTSUNNY   88  67  49 NW5       29.84R HX  91

 IN RI

CITY           SKY/WX    TMP DP  RH WIND       PRES   REMARKS
PROVIDENCE     PTSUNNY   84  67  56 SE7       29.85R
BLOCK ISLAND   SUNNY     77  73  88 SW10      29.85R
WESTERLY       MOSUNNY   79  71  76 S5        29.85R

 IN MA

CITY           SKY/WX    TMP DP  RH WIND       PRES   REMARKS
BOSTON         NOT AVBL
WORCESTER      CLOUDY    83  61  47 E3        29.89R
WESTFIELD      CLOUDY    85  65  51 N5        29.84S
PROVINCETOWN     N/A     73  64  73 E5        29.86R
NANTUCKET      SUNNY     75  72  90 W6        29.85F
$$

ANZ330-335-338-340-345-350-353-355-032300-
COASTAL MARINE OBSERVATIONS


STATION/POSITION TIME  SKY/WX   TEMP    WIND        PRES    VSBY  WAVE
                                AIR SEA DIR/SP/G                  HT/PER
                 (UTC)          (F)     (DEG/KT/KT) (MB)    (MI)  (FT/S)
NY HARB ENTRANCE 2050            80 80  170/  6/  6 1010.0          1/13
4S FIRE IS       NOT AVBL
20S FIRE ISLAND  2050            78 79  220/  4/  6 1010.2          1/ 7
GREAT SOUTH BAY  2100            78 80  220/  6/  8   N/A
23SW MTP         2150            76 75  210/  8/  8 1010.2          2/ 7
HUDSON CANYON    NOT AVBL
KINGS POINT      2100            87 75  250/  2/  2 1009.2
EXECUTION ROCKS  2100            84     110/  4/  6   N/A
CENTRAL LI SOUND NOT AVBL
EASTERN LI SOUND 2100            76 71   CALM  /  2   N/A
ROBBINS REEF     2100            84     150/  6/  8 1008.8
$$


>>>>>>>>>>>>>>>>>>>>>>>>>>>> KEY <<<<<<<<<<<<<<<<<<<<<<<<<<<
>                                                          <
>     SKY/WX - SKY CONDITION/PRESENT WEATHER               <
>     TMP    - TEMPERATURE IN FAHRENHEIT                   <
>     DP     - DEWPOINT IN FAHRENHEIT                      <
>     RH     - RELATIVE HUMIDITY IN PERCENT                <
>     WIND   - DIRECTION AND SPEED IN MPH                  <
>     PRES   - MEAN SEA LEVEL PRESSURE IN INCHES OF HG     <
>     WCI    - WIND CHILL INDEX                            <
>     VSB    - VISIBILITY IN MILES                         <
>     HX     - HEAT INDEX                                  <
>     TC     - TEMPERATURE IN CELSIUS                      <
>     VRB    - VARIABLE WIND DIRECTION                     <
>                                                          <
>>>>>>>>>>>>>>>>>>>>>>>>>>>> KEY <<<<<<<<<<<<<<<<<<<<<<<<<<<




USA.gov is the U.S. government's official web portal to all federal, state and local government web resources and services.